Weather Roundup
Issued by NWS Chicago, IL

Home | Current Version | Previous Version | Graphics & Text | Print | Product List | Glossary On
Versions: 1 2 3 4 5 6 7 8 9 10 11 12 13 14 15 16 17 18 19 20 21 22 23 24 25 26 27 28 29 30 31 32 33 34 35 36 37 38 39 40 41 42 43 44 45 46 47 48 49 50
000
NZUS59 KLOT 211206
HRRLOT

CHICAGO AREA WEATHER ROUNDUP
NATIONAL WEATHER SERVICE CHICAGO/ROMEOVILLE IL
700 AM CDT MON APR 21 2014

NOTE: "FAIR" INDICATES FEW OR NO CLOUDS BELOW 12,000 FEET WITH NO
SIGNIFICANT WEATHER AND/OR OBSTRUCTIONS TO VISIBILITY.

* THESE STATIONS ARE NOT UNDER NWS QUALITY CONTROL. THEY ALSO MAY NOT
  REPORT WEATHER SUCH AS PRECIPITATION OR FOG.

ILZ005-006-012>014-019>023-211300-
NORTHEAST ILLINOIS

CITY           SKY/WX    TMP DP  RH WIND       PRES   REMARKS
OHARE          MOCLDY    59  42  53 S6        29.95F
6HR MIN TEMP:  58; 6HR MAX TEMP:  66;

MIDWAY         MOCLDY    61  42  49 S8        29.96F
6HR MIN TEMP:  60; 6HR MAX TEMP:  66;

AURORA         PTCLDY    51  43  74 SE3       29.96F
6HR MIN TEMP:  49; 6HR MAX TEMP:  60;

LANSING*       PTCLDY    55  42  62 S3        29.97F
JOLIET*        PTCLDY    54  44  69 CALM      29.97F
WAUKEGAN       CLOUDY    57  45  64 S8        29.94F
6HR MIN TEMP:  55; 6HR MAX TEMP:  62; 6HR PCP: TRACE;

DUPAGE AIRPORT PTCLDY    53  44  71 SE6       29.95F
6HR MIN TEMP:  52; 6HR MAX TEMP:  61;

WHEELING       CLOUDY    60  44  55 S3        29.96F
6HR MIN TEMP:  56; 6HR MAX TEMP:  67; 6HR PCP: TRACE;

KANKAKEE*      PTCLDY    56  44  63 S8        29.99S
MORRIS*        PTCLDY    55  41  60 SE6       29.96S
NORTHERLY IS     N/A     61  41  47 SW3         N/A
$$

WIZ051-052-058>065-066-070>072-211300-
SOUTHEAST WISCONSIN

CITY           SKY/WX    TMP DP  RH WIND       PRES   REMARKS
MILWAUKEE      CLOUDY    61  47  59 S8        29.92F
6HR MIN TEMP:  58; 6HR MAX TEMP:  64; 6HR PCP: TRACE;

KENOSHA*       CLOUDY    60  45  57 SW5       29.93F
RACINE*        CLOUDY    61  45  55 SW9       29.94F
BURLINGTON     MOCLDY    56  46  69 SW7       29.93F
WAUKESHA       CLEAR     54  48  82 W9        29.95R
$$

INZ001>003-010>013-019-020-211300-
NORTHWEST INDIANA

CITY           SKY/WX    TMP DP  RH WIND       PRES   REMARKS
GARY*          MOSUNNY   61  39  44 S6        29.98F
MICHIGAN CITY* NOT AVBL
RENSSELAER*    NOT AVBL
VALPARAISO     MOSUNNY   54  39  57 S6        30.00F
$$

LMZ740>746-211300-
SOUTHERN LAKE MICHIGAN

STATION/POSITION TIME  SKY/WX   TEMP WIND        PRES    VSBY
                                AIR  DIR/SP/G
                 (UTC)          (F)  (DEG/KT/KT) (MB)    (MI)
HARRISON CRIB    1200            61  180/ 13/ 14   N/A
BURNHAM HARBOR   1200            61  200/  4/  7   N/A
CALUMET HARBOR   1200            60  190/  6/  9 1015.5F
BURNS HARBOR     NOT AVBL
MICHIGAN CITY    1200            61  150/ 12/ 19   N/A
$$

ABBREVIATIONS USED IN REMARKS
   TC - TEMPERATURE IN CELSIUS
  WCI - WIND CHILL INDEX
   HX - HEAT INDEX
  VSB - VISIBILITY
$$


USA.gov is the U.S. government's official web portal to all federal, state and local government web resources and services.